DW9677 Weather Reports


time (UTC)temp
C
wind
direction
speed
KPH
gust
KPH
rain 1hr
cm
rain 24hr
cm
rain mn
cm
humidity
%
barometer
mb
20260506001601 10 43 0.0 0.0 0.00 1.14 0.00 1 1008.7
20260506000058 10 43 0.0 0.0 0.00 1.14 0.00 1 1008.8
20260505234549 10 42 0.0 0.0 0.00 1.14 0.00 1 1008.8
20260505233048 10 43 0.0 0.0 0.00 1.14 0.00 1 1008.8
20260505231543 10 43 0.0 0.0 0.00 1.14 0.00 1 1009.0
20260505230035 10 42 0.0 0.0 0.00 1.14 0.00 1 1009.0
20260505224532 10 43 0.0 0.0 0.03 1.14 0.00 1 1009.1
20260505223027 11 42 0.0 0.0 0.03 1.14 0.00 1 1009.1
20260505221523 11 43 0.0 0.0 0.08 1.14 0.00 1 1009.1
20260505220040 11 43 0.0 0.0 0.13 1.14 0.00 1 1009.3
20260505214525 11 42 0.0 0.0 0.18 1.12 1.12 1 1009.5
20260505213018 11 42 0.0 0.0 0.36 1.12 1.12 1 1009.6
20260505211505 11 43 0.0 0.0 0.38 1.07 1.07 1 1009.5
20260505210001 11 42 0.0 1.6 0.48 1.02 1.02 1 1009.4
20260505204556 11 42 0.0 0.0 0.64 0.94 0.94 7 1009.3
20260505203042 11 43 0.0 0.0 0.71 0.76 0.76 17 1009.1
20260505201541 11 42 0.0 0.0 0.66 0.69 0.69 35 1008.7
20260505200035 11 43 0.0 0.0 0.51 0.53 0.53 52 1008.5
20260505194528 12 43 0.0 0.0 0.28 0.30 0.30 67 1008.0
20260505193124 12 43 0.0 0.0 0.00 0.03 0.03 77 1007.8
20260505191523 12 43 0.0 0.0 0.00 0.03 0.03 78 1006.7
20260505190014 12 42 0.0 0.0 0.00 0.03 0.03 79 1006.4
20260505184511 13 43 0.0 0.0 0.00 0.03 0.03 77 1006.2
20260505183007 15 44 0.0 0.0 0.00 0.03 0.03 75 1006.0
20260505181502 15 44 0.0 0.0 0.00 0.03 0.03 70 1005.9
20260505180057 16 44 0.0 0.0 0.00 0.03 0.03 69 1006.1
20260505174553 16 44 0.0 0.0 0.00 0.03 0.03 71 1005.8
20260505173051 16 44 0.0 1.6 0.00 0.03 0.03 69 1005.4
20260505171557 17 44 0.0 0.0 0.00 0.03 0.03 72 1005.4
20260505170039 17 44 0.0 0.0 0.00 0.03 0.03 70 1005.1
20260505164552 18 44 0.0 0.0 0.00 0.03 0.03 67 1005.0
20260505163035 18 44 0.0 0.0 0.00 0.03 0.03 66 1005.1
20260505161535 18 44 0.0 0.0 0.00 0.03 0.03 62 1005.0
20260505153014 18 44 0.0 0.0 0.00 0.03 0.03 67 1004.9
20260505151510 17 44 0.0 0.0 0.03 0.03 0.03 72 1005.1
20260505124541 21 44 0.0 0.0 0.00 0.00 0.00 47 1005.3
20260505123017 22 44 0.0 1.6 0.00 0.00 0.00 44 1005.2
20260505120154 23 44 0.0 0.0 0.00 0.00 0.00 41 1005.2
20260505114547 23 44 0.0 1.6 0.00 0.00 0.00 36 1005.2
20260505113112 23 44 0.0 1.6 0.00 0.00 0.00 44 1005.3
20260505111529 23 44 0.0 0.0 0.00 0.00 0.00 38 1005.3
20260505101510 23 44 0.0 1.6 0.00 0.00 0.00 36 1006.0
20260505100007 22 44 0.0 4.8 0.00 0.00 0.00 42 1006.2
20260505094501 22 44 0.0 1.6 0.00 0.00 0.00 47 1006.3
20260505093105 20 44 0.0 0.0 0.00 0.00 0.00 52 1006.5
20260505091553 20 44 0.0 1.6 0.00 0.00 0.00 48 1006.8
20260505090049 20 44 0.0 1.6 0.00 0.00 0.00 56 1006.9
20260505084551 20 44 0.0 0.0 0.00 0.00 0.00 55 1007.1
20260505083048 20 44 0.0 1.6 0.00 0.00 0.00 56 1007.2
20260505081536 19 44 0.0 0.0 0.00 0.00 0.00 61 1007.3
20260505080032 18 44 0.0 1.6 0.00 0.00 0.00 62 1007.6
20260505074528 18 44 0.0 1.6 0.00 0.00 0.00 65 1007.8
20260505073024 17 44 0.0 0.0 0.00 0.00 0.00 66 1007.9
20260505071520 17 44 0.0 0.0 0.00 0.00 0.00 68 1008.1
20260505070015 17 44 0.0 1.6 0.00 0.00 0.00 71 1008.3
20260505064510 16 44 0.0 0.0 0.00 0.00 0.00 74 1008.6
20260505063005 14 44 0.0 0.0 0.00 0.00 0.00 75 1008.5
20260505061502 13 43 0.0 0.0 0.00 0.00 0.00 75 1008.7
20260505060059 13 43 0.0 0.0 0.00 0.00 0.00 70 1008.8
20260505054552 11 43 0.0 0.0 0.00 0.00 0.00 5 1008.8
20260505053110 10 43 0.0 0.0 0.00 0.00 0.00 1 1008.8
20260505051544 8 43 0.0 0.0 0.00 0.00 0.00 1 1008.9
20260505041526 6 42 0.0 0.0 0.00 0.00 0.00 1 1009.1
20260505040022 6 43 0.0 0.0 0.00 0.00 0.00 1 1009.0
20260505034524 6 43 0.0 0.0 0.00 0.00 0.00 1 1008.9
20260505033017 6 42 0.0 0.0 0.00 0.00 0.00 1 1009.0
20260505031512 6 43 0.0 0.0 0.00 0.00 0.00 1 1009.0
20260505030007 6 43 0.0 0.0 0.00 0.00 0.00 1 1009.1
20260505024600 7 42 0.0 0.0 0.00 0.00 0.00 1 1009.2
20260505023101 7 43 0.0 0.0 0.00 0.00 0.00 1 1009.3
20260505021552 7 42 0.0 0.0 0.00 0.00 0.00 1 1009.4
20260505020047 7 43 0.0 0.0 0.00 0.00 0.00 1 1009.4
20260505014543 7 43 0.0 0.0 0.00 0.00 0.00 5 1009.5
20260505013040 7 43 0.0 0.0 0.00 0.00 0.00 16 1009.4
20260505011554 7 42 0.0 0.0 0.00 0.00 0.00 18 1009.4
20260505010033 8 43 0.0 0.0 0.00 0.00 0.00 25 1009.5
20260505004530 8 42 0.0 0.0 0.00 0.00 0.00 33 1009.6
20260505003026 8 43 0.0 0.0 0.00 0.00 0.00 41 1009.8